Location: Klickitat County Star Party
(45.8642°N, 120.6771°W)
Time: 04:42:26
(UTC-08:00)

ITUPSAT 1 - Visible Passes

Search period start: 19 November 2019 00:00
Search period end: 29 November 2019 00:00
Orbit: 701 x 714 km, 98.6° (Epoch: 17 November)

Date Brightness Start Highest point End Pass type
(mag) Time Alt. Az. Time Alt. Az. Time Alt. Az.
19 Nov ? 04:13:43 10° SSE 04:17:58 56° E 04:17:58 56° E visible
19 Nov ? 05:53:26 10° SW 05:56:34 17° W 05:56:57 17° W visible
19 Nov ? 17:49:05 10° NNE 17:53:52 84° WNW 17:58:39 10° SSW visible
19 Nov ? 19:29:03 10° NNW 19:30:54 12° NW 19:32:47 10° W visible
20 Nov ? 03:21:48 10° ESE 03:23:39 17° E 03:23:39 17° E visible
20 Nov ? 04:58:01 10° S 05:02:37 54° WSW 05:02:37 54° WSW visible
20 Nov ? 16:55:58 10° NE 17:00:12 31° E 17:04:24 10° SSE visible
20 Nov ? 18:33:43 10° N 18:37:59 33° WNW 18:42:14 10° SW visible
21 Nov ? 04:04:38 10° SE 04:08:18 42° ESE 04:08:18 42° ESE visible
21 Nov ? 05:43:39 10° SW 05:47:14 21° W 05:47:17 21° W visible
21 Nov ? 17:39:51 10° NNE 17:44:39 80° ESE 17:49:25 10° SSW visible
21 Nov ? 19:19:13 10° NNW 19:21:49 15° WNW 19:24:25 10° W visible
22 Nov ? 03:13:06 10° E 03:13:59 13° E 03:13:59 13° E visible
22 Nov ? 04:48:42 10° S 04:52:58 63° SW 04:52:58 63° SW visible
22 Nov ? 18:24:21 10° N 18:28:49 40° WNW 18:33:16 10° SW visible
23 Nov ? 03:55:37 10° SE 03:58:39 32° ESE 03:58:39 32° ESE visible
23 Nov ? 05:33:58 10° SSW 05:37:37 25° W 05:37:37 25° W visible
23 Nov ? 17:30:39 10° NNE 17:35:24 65° ESE 17:40:09 10° S visible
23 Nov ? 19:09:36 10° NNW 19:12:43 18° WNW 19:15:50 10° W visible
24 Nov ? 04:39:26 10° SSE 04:43:19 60° S 04:43:19 60° S visible
24 Nov ? 18:15:02 10° N 18:19:38 49° WNW 18:24:14 10° SW visible
25 Nov ? 03:46:39 10° SE 03:49:02 24° ESE 03:49:02 24° ESE visible
25 Nov ? 05:24:24 10° SSW 05:28:01 30° WSW 05:28:01 30° WSW visible
25 Nov ? 17:21:28 10° NNE 17:26:09 52° E 17:30:49 10° S visible
25 Nov ? 19:00:03 10° NNW 19:03:36 21° WNW 19:07:08 10° WSW visible
26 Nov ? 04:30:12 10° SSE 04:33:43 50° SSE 04:33:43 50° SSE visible
26 Nov ? 06:11:27 10° WSW 06:12:41 12° W 06:12:41 12° W visible
26 Nov ? 18:05:44 10° N 18:10:27 61° WNW 18:15:09 10° SSW visible
27 Nov ? 03:37:44 10° ESE 03:39:26 19° ESE 03:39:26 19° ESE visible
27 Nov ? 05:14:54 10° SSW 05:18:24 35° SW 05:18:24 35° SW visible
27 Nov ? 17:12:20 10° NNE 17:16:53 42° E 17:21:25 10° S visible
27 Nov ? 18:50:35 10° N 18:54:28 25° WNW 18:58:19 10° WSW visible
28 Nov ? 04:21:02 10° SSE 04:24:08 40° SE 04:24:08 40° SE visible
28 Nov ? 06:01:15 10° SW 06:03:07 15° WSW 06:03:07 15° WSW visible
28 Nov ? 17:56:27 10° N 18:01:14 75° WNW 18:06:01 10° SSW visible
28 Nov ? 19:36:57 10° NW 19:38:12 11° NW 19:39:27 10° WNW visible
